Location: Strawberry
(45.6646°N, 111.9596°W)
Time: 18:40:41
(UTC+00:00)

SR - Pass Details

Date: 09 October 2022
Orbit: 577 x 874 km, 66.7° (Epoch: 05 December)

Event Time Altitude Azimuth Distance (km) Brightness Sun altitude
Exits shadow 10:18:51 23° 5° (N) 1,627 ? -34.2°
Maximum altitude 10:20:58 30° 42° (NE) 1,353 ? -33.9°
Drops below altitude 10° 10:25:22 10° 103° (ESE) 2,197 ? -33.2°
Sets 10:27:53 0° 115° (ESE) 3,060 ? -32.8°
